OPS 4682 DEB, 26732

Orbit data source: Space-Track

OPS 4682 DEB, 26732 is space debris in LEO originally from a launch on Sat, 03 Apr 1965 UTC launched from the Air Force Western Test Range (AFWTR). Debris objects in space refer to the collection of defunct objects orbiting the Earth. Examples of debris include non-operational satellites, rocket bodies, and fragments generated from explosions, collisions, or faulty payload assembly.

Loading next visibility...
Identifier
26732, 1965-027BF
Orbit
LEO
Country
Flag of USUS
Related business
Manufacturer
Unknown
Mission
Spacecraft
Bus & Motor
Unknown
Mass
Unknown
Launch date (UTC)
1965-04-03 (61 years ago)
Launch vehicle
Unknown
Launch site
Air Force Western Test Range (AFWTR)
Object type
Payload
Rocket body
Debris
Shape & HBR
Unknown shape, 0.1 m
Radar Cross Section
Small (<0.1 m²)

Expand to show TLE details & history
Last TLE update: 13 hours ago

TLE from 13 hours ago
0 OPS 4682 DEB
1 26732U 65027BF  25293.15136858  .00000271  00000-0  92143-3 0  9990
2 26732  90.2562   5.6020 0064609  94.3668 296.4892 12.95765324464086
Epoch: 2025-10-20T03:37Z
TLE epoch observation values (Epoch: 2025-10-20T03:37:58.245Z)
Latitude
30.23788°
Longitude
-77.89707°
Altitude
1,260.709 km
Speed
7.238 km/s
True Right ascension
00h 21m 48s
True Declination
30° 05' 54"
Sunlit
Object was in full shadow at epoch
Visualization orbit readout
Latitude
Unknown
Longitude
Unknown
Altitude
Unknown
Speed
Unknown
Apparent Right ascension
Unknown
Apparent Declination
Unknown
Sunlit
N/A
Visualization observer readout
Local Sidereal Time
11:40:52
Azimuth
Unknown
Elevation
Unknown
Doppler factor
Unknown
Orbital elements
Apogee altitude
1,325.308 km
Perigee altitude
1,226.405 km
Semi-major axis
7,653.994 km
Eccentricity
0.00646
Inclination
90.2562°
RAAN
5.602°
Arg. of periapsis
94.3668°
True anomaly
295.82418°
Mean anomaly
296.4892°
Eccentric anomaly
296.15693°
Mean motion
3.24124 °/min
Orbital period
111.07 mins
BSTAR
0.00092143
Loading maneuver chart data...
Computing Atmospheric mass density...
Loading historical data...
Loading historical data...
Loading historical data...
Loading historical data...
Loading historical data...
Loading historical data...
Loading historical data...

Documentation

Showing up to 5 results
|